This is the latest recevied weather packets stored in our database for station/object VE7PRT-1. If no packets are shown the sender has not sent any weather packets the latest 10 day(s).
| Time | Temp. | Humidity | Pressure | Rain* | Wind** | Luminosity | Snow |
|---|---|---|---|---|---|---|---|
| 1788041386 | 18.33° C | 83% | 1018.1 hPa | 0 mm | - | - | - |
| 1788040626 | 17.78° C | 90% | 1018 hPa | 0 mm | - | - | - |
| 1788039844 | 16.67° C | 89% | 1018.1 hPa | 0 mm | - | - | - |
| 1788039086 | 17.22° C | 90% | 1018.2 hPa | 0 mm | - | - | - |
| 1788038211 | 16.67° C | 91% | 1018 hPa | 0 mm | - | - | - |
| 1788037461 | 16.11° C | 92% | 1017.9 hPa | 0 mm | - | - | - |
| 1788036701 | 16.11° C | 93% | 1017.8 hPa | 0 mm | - | - | - |
| 1788035811 | 16.11° C | 92% | 1017.7 hPa | 0 mm | - | - | - |
| 1788034951 | 15.56° C | 92% | 1017.7 hPa | 0 mm | - | - | - |
| 1788034161 | 15.56° C | 94% | 1017.7 hPa | 0 mm | - | - | - |
| 1788033376 | 15.56° C | 95% | 1017.6 hPa | 0 mm | - | - | - |
| 1788032526 | 15.56° C | 96% | 1017.6 hPa | 0 mm | - | - | - |
| 1788031691 | 15.56° C | 97% | 1017.5 hPa | 0 mm | - | - | - |
| 1788030816 | 15° C | 97% | 1017.4 hPa | 0 mm | - | - | - |
| 1788029916 | 15° C | 97% | 1017.2 hPa | 0 mm | - | - | - |
| 1788029031 | 15° C | 98% | 1017.2 hPa | 0 mm | - | - | - |
| 1788028273 | 15° C | 98% | 1017.1 hPa | 0 mm | - | - | - |
| 1788027381 | 15° C | 98% | 1017.2 hPa | 0 mm | - | - | - |
| 1788026496 | 14.44° C | 98% | 1017.2 hPa | 0 mm | - | - | - |
| 1788025636 | 14.44° C | 98% | 1017.1 hPa | 0 mm | - | - | - |
| 1788024756 | 13.89° C | 97% | 1017 hPa | 0 mm | - | - | - |
| 1788023856 | 13.89° C | 98% | 1017.1 hPa | 0 mm | - | - | - |
| 1788023001 | 13.33° C | 99% | 1017 hPa | 0 mm | - | - | - |
| 1788022286 | 13.33° C | 99% | 1017 hPa | 0 mm | - | - | - |
| 1788021459 | 13.33° C | 99% | 1016.9 hPa | 0 mm | - | - | - |
* Rain latest hour (hover to see other rain measurements)
** Current wind speed in m/s (hover to see current wind gust speed)